Ardmore, OK

8:22 PM CST on December 17, 2017 (GMT -0600)
Ardmore Municipal

Weather History for KADM - January, 2014

Change the Weather History Date:

Monday, January 27, 2014

  Actual Average Record
Temperature  
Mean Temperature 38 °F -  
Max Temperature 53 °F 51 °F 78 °F (2015)
Min Temperature 22 °F 32 °F 17 °F (2004)
Degree Days  
Heating Degree Days 28    
Moisture  
Dew Point 9 °F    
Average Humidity 39    
Maximum Humidity 63    
Minimum Humidity 23    
Precipitation  
Precipitation 0.00 in - - ()
Sea Level Pressure  
Sea Level Pressure 30.22 in    
Wind  
Wind Speed 19 mph (NNE)    
Max Wind Speed 29 mph    
Max Gust Speed 41 mph    
Visibility 10 miles    
Events      
Averages and records for this station are not official NWS values.
T = Trace of Precipitation, MM = Missing Value Source: NWS Daily Summary

Daily Weather History Graph

Daily Weather History Graph

Search for Another Location

Airport or City:

Trip Planner

Search our weather history database for the weather conditions in past years. The results will help you decide how hot, cold, wet, or windy it might be!

Date:

Astronomy

Jan. 27, 2014 Rise Set
Actual Time 7:28 AM CST 5:53 PM CST
Civil Twilight 7:02 AM CST 6:19 PM CST
Nautical Twilight 6:32 AM CST 6:50 PM CST
Astronomical Twilight 6:02 AM CST 7:19 PM CST
Moon 4:09 AM CST (1/27) 2:42 PM CST (1/27)
Length of Visible Light 11h 17m
Length of Day
10h 24m
Waning Crescent, 14% of the Moon is Illuminated
Jan 27
Waning Crescent
Jan 30
New
Feb 6
First Quarter
Feb 14
Full
Feb 22
Last Quarter

Hourly Weather History & Observations

Time (CST) Temp. Windchill Dew Point Humidity Pressure Visibility Wind Dir Wind Speed Gust Speed Precip Events Conditions
12:15 AM 53.6 °F - 32.5 °F 45% 29.87 in 10.0 mi North 11.5 mph - N/A   Clear
12:55 AM 51.1 °F - 31.8 °F 48% 29.92 in 10.0 mi North 25.3 mph 34.5 mph N/A   Scattered Clouds
1:15 AM 47.5 °F - 32.0 °F 55% 29.95 in 10.0 mi North 20.7 mph 32.2 mph N/A   Overcast
1:35 AM 45.1 °F 37.3 °F 32.2 °F 60% 29.97 in 10.0 mi North 19.6 mph 29.9 mph N/A   Overcast
1:55 AM 43.5 °F 34.7 °F 31.6 °F 63% 30.00 in 10.0 mi NNE 21.9 mph 36.8 mph N/A   Mostly Cloudy
2:15 AM 41.7 °F 32.6 °F 29.8 °F 63% 30.02 in 10.0 mi North 20.7 mph 33.4 mph N/A   Scattered Clouds
2:35 AM 40.1 °F 29.5 °F 27.7 °F 61% 30.03 in 10.0 mi North 25.3 mph 32.2 mph N/A   Clear
2:55 AM 39.0 °F 28.5 °F 27.0 °F 62% 30.05 in 10.0 mi NNE 23.0 mph 31.1 mph N/A   Clear
3:15 AM 38.1 °F 28.8 °F 26.6 °F 63% 30.07 in 10.0 mi NNE 17.3 mph 25.3 mph N/A   Clear
3:35 AM 36.9 °F 24.4 °F 21.7 °F 54% 30.08 in 10.0 mi NNE 28.8 mph 36.8 mph N/A   Clear
3:55 AM 35.6 °F 23.4 °F 18.9 °F 51% 30.10 in 10.0 mi NNE 25.3 mph 31.1 mph N/A   Clear
4:15 AM 34.7 °F 22.0 °F 7.2 °F 32% 30.12 in 10.0 mi NNE 26.5 mph 41.4 mph N/A   Clear
4:35 AM 33.8 °F 23.5 °F 6.8 °F 32% 30.13 in 10.0 mi NNE 16.1 mph 31.1 mph N/A   Clear
4:55 AM 32.9 °F 20.4 °F 6.8 °F 33% 30.15 in 10.0 mi NNE 23.0 mph 28.8 mph N/A   Clear
5:15 AM 32.0 °F 20.1 °F 6.8 °F 35% 30.17 in 10.0 mi NNE 19.6 mph 26.5 mph N/A   Clear
5:35 AM 32.0 °F 20.5 °F 7.2 °F 35% 30.18 in 10.0 mi NNE 18.4 mph 34.5 mph N/A   Clear
6:55 AM 28.4 °F 15.8 °F 1.4 °F 31% 30.24 in 10.0 mi NNE 18.4 mph 29.9 mph N/A   Clear
7:55 AM 26.6 °F 15.2 °F 3.2 °F 37% 30.28 in 10.0 mi NNE 13.8 mph 24.2 mph N/A   Clear
8:55 AM 28.4 °F 16.2 °F 1.4 °F 31% 30.32 in 10.0 mi North 17.3 mph 25.3 mph N/A   Clear
9:55 AM 30.2 °F 17.4 °F 1.4 °F 29% 30.35 in 10.0 mi North 20.7 mph 27.6 mph N/A   Clear
10:55 AM 32.0 °F 20.8 °F 1.4 °F 27% 30.36 in 10.0 mi North 17.3 mph 25.3 mph N/A   Clear
11:55 AM 32.0 °F 20.8 °F 3.2 °F 30% 30.36 in 10.0 mi North 17.3 mph 25.3 mph N/A   Clear
12:55 PM 33.8 °F 21.9 °F 1.4 °F 25% 30.33 in 10.0 mi NE 21.9 mph 28.8 mph N/A   Clear
1:55 PM 32.0 °F 23.0 °F 1.4 °F 27% 30.33 in 10.0 mi North 11.5 mph 18.4 mph N/A   Clear
2:55 PM 32.0 °F 21.2 °F -2.2 °F 23% 30.32 in 10.0 mi NE 16.1 mph - N/A   Clear
3:55 PM 30.2 °F 19.8 °F -2.2 °F 25% 30.32 in 10.0 mi NE 13.8 mph 19.6 mph N/A   Clear
4:55 PM 30.2 °F 18.5 °F -2.2 °F 25% 30.32 in 10.0 mi NE 17.3 mph 21.9 mph N/A   Scattered Clouds
5:55 PM 30.2 °F 18.5 °F -2.2 °F 25% 30.34 in 10.0 mi NE 17.3 mph 23.0 mph N/A   Overcast
6:55 PM 24.8 °F 11.9 °F -4.0 °F 28% 30.37 in 10.0 mi NNE 16.1 mph 20.7 mph N/A   Scattered Clouds
7:55 PM 23.0 °F 10.1 °F -2.2 °F 33% 30.37 in 10.0 mi NNE 15.0 mph - N/A   Overcast
8:55 PM 23.0 °F 10.1 °F -2.2 °F 33% 30.38 in 10.0 mi NNE 15.0 mph - N/A   Mostly Cloudy
9:55 PM 23.0 °F 9.6 °F -2.2 °F 33% 30.38 in 10.0 mi NNE 16.1 mph 20.7 mph N/A   Scattered Clouds
10:35 PM 22.5 °F 10.5 °F -0.9 °F 36% 30.39 in 10.0 mi NNE 12.7 mph 18.4 mph N/A   Scattered Clouds
10:55 PM 22.5 °F 10.5 °F -0.8 °F 36% 30.38 in 10.0 mi NE 12.7 mph - N/A   Mostly Cloudy
11:15 PM 22.6 °F 8.7 °F -0.4 °F 37% 30.39 in 10.0 mi NNE 17.3 mph 20.7 mph N/A   Mostly Cloudy
11:35 PM 22.8 °F 9.9 °F -0.2 °F 37% 30.40 in 10.0 mi NNE 15.0 mph 20.7 mph N/A   Overcast
11:55 PM 22.6 °F 9.2 °F -0.4 °F 37% 30.41 in 10.0 mi NNE 16.1 mph 20.7 mph N/A   Overcast